Showing default

PRAETORIAN SDA_618, 65581

Orbit data source: Space-Track

PRAETORIAN SDA_618, 65581 is a payload satellite owned by SDA (US) in LEO that was launched on Wed, 10 Sep 2025 UTC via an FALCON 9 launch vehicle from the Air Force Western Test Range (AFWTR). Payload-class satellites include a variety of spacecraft equipped with specific instruments for various scientific and technological missions. These include communications satellites like Starlink; space stations such as the ISS; scientific satellites like the Hubble; Earth observation satellites from companies like Planet Labs, Umbra, and HawkEye 360; GPS; miniature CubeSats for education and research; and military/defense satellites.

Loading next visibility...
Identifier
65581, 2025-203S
Orbit
LEO
Country
Flag of USUS
Related business
Manufacturer
York Space Sys
Mission
Operational Defense Communications
Bus & Motor
S-CLASS, Unknown motor
Mass
~300 kg wet, ~300 kg dry
Launch date (UTC)
2025-09-10 (9 months ago)
Launch vehicle
FALCON 9
Launch site
Air Force Western Test Range (AFWTR)
Object type
Payload
Rocket body
Debris
Shape & HBR
Box + 4 Pan, 14.5 m
Radar Cross Section
1.244 m², Large (>1 m²)

Expand to show TLE details & history
Last TLE update: 22 hours ago

TLE from 22 hours ago
0 PRAETORIAN SDA_618
1 65581U 25203S   26170.94095469  .00000180  00000-0  14921-3 0  9998
2 65581  81.3020   7.9356 0009634 180.2746 179.8408 13.84669976 39098
Epoch: 2026-06-19T22:34Z
TLE epoch observation values (Epoch: 2026-06-19T22:34:58.485Z)
Latitude
0.00006°
Longitude
121.02921°
Altitude
957.294 km
Speed
7.37 km/s
True Right ascension
00h 31m 44s
True Declination
0° 00' 00"
Sunlit
Object was in daylight at epoch
Visualization orbit readout
Latitude
Unknown
Longitude
Unknown
Altitude
Unknown
Speed
Unknown
Apparent Right ascension
Unknown
Apparent Declination
Unknown
Sunlit
N/A
Visualization observer readout
Local Sidereal Time
07:16:27
Azimuth
Unknown
Elevation
Unknown
Doppler factor
Unknown
Orbital elements
Apogee altitude
951.63 km
Perigee altitude
937.52 km
Semi-major axis
7,322.712 km
Eccentricity
0.00096
Inclination
81.302°
RAAN
7.9356°
Arg. of periapsis
180.2746°
True anomaly
179.84111°
Mean anomaly
179.8408°
Eccentric anomaly
179.84095°
Mean motion
3.46366 °/min
Orbital period
103.94 mins
BSTAR
0.00014921
Loading maneuver chart data...
Computing Atmospheric mass density...

Documentation

Showing up to 5 results
|